User: anonymous   Login
Location: �clusier
(49.9361°N, 2.7869°E)
Time: 09:57:03
(UTC+00:00)
Language:

FALCON 9 DEB - Orbit

View from above orbital plane
View from above orbital plane
View from above satellite
View from above satellite

Ground track
Ground track

The orbit data is extracted from the following two-line orbital elements,

1 46086U 20055BM  21264.76233520  .00020192  00000-0  17407-3 0  9995
2 46086  53.0055  81.0463 0011376 190.2601 169.8184 15.69219567 68791
Epoch (UTC): 21 September 2021 18:17:45
Eccentricity: 0.0011376
inclination: 53.0055°
perigee height: 353 km
apogee height: 369 km
right ascension of ascending node: 81.0463°
argument of perigee: 190.2601°
revolutions per day: 15.69219567
mean anomaly at epoch: 169.8184°
orbit number at epoch: 6879

The dashed part of the orbit path shows where the satellite is in the earth's shadow,  

DLR